Location: Kott?ru
(16.6209°N, 80.6208°E)
Time: 04:32:38
(UTC+00:00)

RS-15 - Visible Passes

Search period start: 03 June 2023 00:00
Search period end: 13 June 2023 00:00
Orbit: 1885 x 2159 km, 64.8° (Epoch: 02 June)

Date Brightness Start Highest point End Pass type
(mag) Time Alt. Az. Time Alt. Az. Time Alt. Az.
03 Jun 8.9 21:00:31 29° SSE 21:05:52 42° ESE 21:17:03 10° NE visible
03 Jun 8.6 23:08:20 15° SW 23:18:01 42° WNW 23:29:23 10° N visible
04 Jun 9.2 20:26:20 25° SE 20:30:04 30° ESE 20:39:58 10° NE visible
04 Jun 8.3 22:34:08 25° SW 22:41:49 57° WNW 22:53:51 10° NNE visible
05 Jun 9.5 19:52:05 19° ESE 19:54:17 20° ESE 20:02:05 10° ENE visible
05 Jun 8.1 21:59:52 38° SW 22:05:44 76° WNW 22:18:05 10° NNE visible
06 Jun 9.9 19:17:46 11° ESE 19:18:32 11° ESE 19:21:55 10° E visible
06 Jun 8.1 21:25:34 50° S 21:29:43 82° ESE 21:42:05 10° NNE visible
06 Jun 9.3 23:34:55 10° W 23:43:03 20° NW 23:51:17 10° NNW visible
07 Jun 8.3 20:51:12 53° SSE 20:53:48 62° ESE 21:05:50 10° NNE visible
07 Jun 9.0 22:58:59 16° WSW 23:06:31 29° WNW 23:16:34 10° N visible
08 Jun 8.6 20:16:47 44° ESE 20:17:56 45° ESE 20:29:15 10° NE visible
08 Jun 8.7 22:24:35 28° WSW 22:30:09 40° WNW 22:41:23 10° N visible
09 Jun 9.1 19:42:21 31° ESE 19:42:21 31° ESE 19:52:15 10° NE visible
09 Jun 8.3 21:50:08 43° WSW 21:53:56 54° WNW 22:05:54 10° NNE visible
10 Jun 9.5 19:07:51 20° E 19:07:51 20° E 19:14:32 10° ENE visible
10 Jun 8.0 21:15:37 63° WSW 21:17:50 73° WNW 21:30:09 10° NNE visible
10 Jun 9.6 23:27:45 10° WNW 23:32:02 12° NW 23:36:20 10° NNW visible
11 Jun 9.9 18:33:18 12° E 18:33:18 12° E 18:35:01 10° E visible
11 Jun 7.9 20:41:04 81° S 20:41:49 85° ESE 20:54:11 10° NNE visible
11 Jun 9.4 22:48:51 13° W 22:55:14 19° NW 23:03:07 10° NNW visible
12 Jun 8.2 20:06:29 64° E 20:06:29 64° E 20:17:58 10° NNE visible
12 Jun 9.0 22:14:15 22° W 22:18:40 27° WNW 22:28:30 10° N visible
